Retour au catalogue

MUOS 1

ActifMilitaireGEO
NORAD 38093·PAYLOAD·🇺🇸 United States

Lancé Feb 24, 2012 depuis Cape Canaveral Space Force Station

Loading…

TLE

FraisSource: Space-Track

Époque: Sep 14, 2026, 15:27 UTC

1 38093U 12009A   26257.64432057 -.00000134  00000-0  00000-0 0  9997
2 38093   5.6564  46.9851 0052559   3.9698  74.6727  1.00271509 53348

Suivez MUOS 1 en temps réel avec AllMySat

Download on the App Store